Time,TemperatureF,DewpointF,PressureIn,WindDirection,WindDirectionDegrees,WindSpeedMPH,WindSpeedGustMPH,Humidity,HourlyPrecipIn,Conditions,Clouds,dailyrainin,SolarRadiationWatts/m^2,SoftwareType,DateUTC
2013-06-14 00:02:00,70.0,65.0,-100.00,SE,127,2.0,5.0,84,0.00,,,0.00,0.000000,,2013-06-14 05:02:00,
2013-06-14 00:11:00,70.0,65.0,-100.00,SE,127,2.0,5.0,84,0.00,,,0.00,0.000000,,2013-06-14 05:11:00,
2013-06-14 00:34:00,70.0,65.0,-100.00,SE,131,3.0,5.0,85,0.00,,,0.00,0.000000,,2013-06-14 05:34:00,
2013-06-14 00:43:00,70.0,65.0,-100.00,SE,131,3.0,5.0,85,0.00,,,0.00,0.000000,,2013-06-14 05:43:00,
2013-06-14 00:52:00,70.0,65.0,-100.00,SE,131,3.0,5.0,85,0.00,,,0.00,0.000000,,2013-06-14 05:52:00,
2013-06-14 01:02:00,70.0,65.0,-100.00,SE,131,3.0,5.0,85,0.00,,,0.00,0.000000,,2013-06-14 06:02:00,
2013-06-14 01:12:00,70.0,65.0,-100.00,SE,131,3.0,5.0,85,0.00,,,0.00,0.000000,,2013-06-14 06:12:00,
2013-06-14 01:33:00,69.0,63.0,-100.00,SE,138,2.0,4.0,82,0.00,,,0.00,0.000000,,2013-06-14 06:33:00,
2013-06-14 01:43:00,69.0,63.0,-100.00,SE,138,2.0,4.0,82,0.00,,,0.00,0.000000,,2013-06-14 06:43:00,
2013-06-14 01:52:00,69.0,63.0,-100.00,SE,138,2.0,4.0,82,0.00,,,0.00,0.000000,,2013-06-14 06:52:00,
2013-06-14 02:02:00,69.0,63.0,-100.00,SE,138,2.0,4.0,82,0.00,,,0.00,0.000000,,2013-06-14 07:02:00,
2013-06-14 02:12:00,69.0,63.0,-100.00,SE,138,2.0,4.0,82,0.00,,,0.00,0.000000,,2013-06-14 07:12:00,
2013-06-14 02:33:00,68.0,64.0,-100.00,SSE,151,2.0,4.0,87,0.00,,,0.00,0.000000,,2013-06-14 07:33:00,
2013-06-14 02:43:00,68.0,64.0,-100.00,SSE,151,2.0,4.0,87,0.00,,,0.00,0.000000,,2013-06-14 07:43:00,
2013-06-14 02:53:00,68.0,64.0,-100.00,SSE,151,2.0,4.0,87,0.00,,,0.00,0.000000,,2013-06-14 07:53:00,
2013-06-14 03:02:00,68.0,64.0,-100.00,SSE,151,2.0,4.0,87,0.00,,,0.00,0.000000,,2013-06-14 08:02:00,
2013-06-14 03:12:00,68.0,64.0,-100.00,SSE,151,2.0,4.0,87,0.00,,,0.00,0.000000,,2013-06-14 08:12:00,
2013-06-14 03:33:00,67.0,64.0,-100.00,SSE,158,2.0,3.0,89,0.00,,,0.00,0.000000,,2013-06-14 08:33:00,
2013-06-14 03:43:00,67.0,64.0,-100.00,SSE,158,2.0,3.0,89,0.00,,,0.00,0.000000,,2013-06-14 08:43:00,
2013-06-14 03:53:00,67.0,64.0,-100.00,SSE,158,2.0,3.0,89,0.00,,,0.00,0.000000,,2013-06-14 08:53:00,
2013-06-14 04:02:00,67.0,64.0,-100.00,SSE,158,2.0,3.0,89,0.00,,,0.00,0.000000,,2013-06-14 09:02:00,
2013-06-14 04:12:00,67.0,64.0,-100.00,SSE,158,2.0,3.0,89,0.00,,,0.00,0.000000,,2013-06-14 09:12:00,
2013-06-14 04:33:00,66.0,64.0,-100.00,South,184,2.0,3.0,94,0.00,,,0.00,0.000000,,2013-06-14 09:33:00,
2013-06-14 04:43:00,66.0,64.0,-100.00,South,184,2.0,3.0,94,0.00,,,0.00,0.000000,,2013-06-14 09:43:00,
2013-06-14 04:53:00,66.0,64.0,-100.00,South,184,2.0,3.0,94,0.00,,,0.00,0.000000,,2013-06-14 09:53:00,
2013-06-14 05:01:00,66.0,64.0,-100.00,South,184,2.0,3.0,94,0.00,,,0.00,0.000000,,2013-06-14 10:01:00,
2013-06-14 05:11:00,66.0,64.0,-100.00,South,184,2.0,3.0,94,0.00,,,0.00,0.000000,,2013-06-14 10:11:00,
2013-06-14 05:34:00,65.0,64.0,-100.00,ESE,117,3.0,4.0,96,0.00,,,0.00,0.000000,,2013-06-14 10:34:00,
2013-06-14 05:44:00,65.0,64.0,-100.00,ESE,117,3.0,4.0,96,0.00,,,0.00,0.000000,,2013-06-14 10:44:00,
2013-06-14 05:53:00,65.0,64.0,-100.00,ESE,117,3.0,4.0,96,0.00,,,0.00,0.000000,,2013-06-14 10:53:00,
2013-06-14 06:02:00,65.0,64.0,-100.00,ESE,117,3.0,4.0,96,0.00,,,0.00,0.000000,,2013-06-14 11:02:00,
2013-06-14 06:11:00,65.0,64.0,-100.00,ESE,117,3.0,4.0,96,0.00,,,0.00,0.000000,,2013-06-14 11:11:00,
2013-06-14 06:33:00,65.0,63.0,-100.00,ESE,123,1.0,5.0,93,0.00,,,0.00,8.000000,,2013-06-14 11:33:00,
2013-06-14 06:43:00,65.0,63.0,-100.00,ESE,123,1.0,5.0,93,0.00,,,0.00,8.000000,,2013-06-14 11:43:00,
2013-06-14 06:52:00,65.0,63.0,-100.00,ESE,123,1.0,5.0,93,0.00,,,0.00,8.000000,,2013-06-14 11:52:00,
2013-06-14 07:02:00,65.0,63.0,-100.00,ESE,123,1.0,5.0,93,0.00,,,0.00,8.000000,,2013-06-14 12:02:00,
2013-06-14 07:12:00,65.0,63.0,-100.00,ESE,123,1.0,5.0,93,0.00,,,0.00,8.000000,,2013-06-14 12:12:00,
2013-06-14 07:33:00,67.0,64.0,-100.00,SE,130,3.0,4.0,90,0.00,,,0.00,121.000000,,2013-06-14 12:33:00,
2013-06-14 07:43:00,67.0,64.0,-100.00,SE,130,3.0,4.0,90,0.00,,,0.00,121.000000,,2013-06-14 12:43:00,
2013-06-14 07:52:00,67.0,64.0,-100.00,SE,130,3.0,4.0,90,0.00,,,0.00,121.000000,,2013-06-14 12:52:00,
2013-06-14 08:02:00,67.0,64.0,-100.00,SE,130,3.0,4.0,90,0.00,,,0.00,121.000000,,2013-06-14 13:02:00,
2013-06-14 08:11:00,67.0,64.0,-100.00,SE,130,3.0,4.0,90,0.00,,,0.00,121.000000,,2013-06-14 13:11:00,
2013-06-14 08:33:00,71.0,65.0,-100.00,SE,140,3.0,6.0,81,0.00,,,0.00,249.000000,,2013-06-14 13:33:00,
2013-06-14 08:43:00,71.0,65.0,-100.00,SE,140,3.0,6.0,81,0.00,,,0.00,249.000000,,2013-06-14 13:43:00,
2013-06-14 08:53:00,71.0,65.0,-100.00,SE,140,3.0,6.0,81,0.00,,,0.00,249.000000,,2013-06-14 13:53:00,
2013-06-14 09:02:00,71.0,65.0,-100.00,SE,140,3.0,6.0,81,0.00,,,0.00,249.000000,,2013-06-14 14:02:00,
2013-06-14 09:11:00,71.0,65.0,-100.00,SE,140,3.0,6.0,81,0.00,,,0.00,249.000000,,2013-06-14 14:11:00,
2013-06-14 09:34:00,74.0,66.0,-100.00,SE,133,4.0,7.0,75,0.00,,,0.00,425.000000,,2013-06-14 14:34:00,
2013-06-14 09:43:00,74.0,66.0,-100.00,SE,133,4.0,7.0,75,0.00,,,0.00,425.000000,,2013-06-14 14:43:00,
2013-06-14 09:52:00,74.0,66.0,-100.00,SE,133,4.0,7.0,75,0.00,,,0.00,425.000000,,2013-06-14 14:52:00,
2013-06-14 10:01:00,74.0,66.0,-100.00,SE,133,4.0,7.0,75,0.00,,,0.00,425.000000,,2013-06-14 15:01:00,
2013-06-14 10:11:00,74.0,66.0,-100.00,SE,133,4.0,7.0,75,0.00,,,0.00,425.000000,,2013-06-14 15:11:00,
2013-06-14 10:33:00,78.0,67.0,-100.00,SE,144,5.0,9.0,68,0.00,,,0.00,614.000000,,2013-06-14 15:33:00,
2013-06-14 10:44:00,78.0,67.0,-100.00,SE,144,5.0,9.0,68,0.00,,,0.00,614.000000,,2013-06-14 15:44:00,
2013-06-14 10:53:00,78.0,67.0,-100.00,SE,144,5.0,9.0,68,0.00,,,0.00,614.000000,,2013-06-14 15:53:00,
2013-06-14 11:01:00,78.0,67.0,-100.00,SE,144,5.0,9.0,68,0.00,,,0.00,614.000000,,2013-06-14 16:01:00,
2013-06-14 11:11:00,78.0,67.0,-100.00,SE,144,5.0,9.0,68,0.00,,,0.00,614.000000,,2013-06-14 16:11:00,
2013-06-14 11:33:00,80.0,64.0,-100.00,SE,136,6.0,12.0,58,0.00,,,0.00,805.000000,,2013-06-14 16:33:00,
2013-06-14 11:43:00,80.0,64.0,-100.00,SE,136,6.0,12.0,58,0.00,,,0.00,805.000000,,2013-06-14 16:43:00,
2013-06-14 11:53:00,80.0,64.0,-100.00,SE,136,6.0,12.0,58,0.00,,,0.00,805.000000,,2013-06-14 16:53:00,
2013-06-14 12:02:00,80.0,64.0,-100.00,SE,136,6.0,12.0,58,0.00,,,0.00,805.000000,,2013-06-14 17:02:00,
2013-06-14 12:11:00,80.0,64.0,-100.00,SE,136,6.0,12.0,58,0.00,,,0.00,805.000000,,2013-06-14 17:11:00,
2013-06-14 12:34:00,82.0,65.0,-100.00,South,184,7.0,10.0,56,0.00,,,0.00,899.000000,,2013-06-14 17:34:00,
2013-06-14 12:43:00,82.0,65.0,-100.00,South,184,7.0,10.0,56,0.00,,,0.00,899.000000,,2013-06-14 17:43:00,
2013-06-14 12:53:00,82.0,65.0,-100.00,South,184,7.0,10.0,56,0.00,,,0.00,899.000000,,2013-06-14 17:53:00,
2013-06-14 13:02:00,82.0,65.0,-100.00,South,184,7.0,10.0,56,0.00,,,0.00,899.000000,,2013-06-14 18:02:00,
2013-06-14 13:11:00,82.0,65.0,-100.00,South,184,7.0,10.0,56,0.00,,,0.00,899.000000,,2013-06-14 18:11:00,
2013-06-14 13:33:00,84.0,66.0,-100.00,South,172,5.0,11.0,54,0.00,,,0.00,1007.000000,,2013-06-14 18:33:00,
2013-06-14 13:43:00,84.0,66.0,-100.00,South,172,5.0,11.0,54,0.00,,,0.00,1007.000000,,2013-06-14 18:43:00,
2013-06-14 13:52:00,84.0,66.0,-100.00,South,172,5.0,11.0,54,0.00,,,0.00,1007.000000,,2013-06-14 18:52:00,
2013-06-14 14:01:00,84.0,66.0,-100.00,South,172,5.0,11.0,54,0.00,,,0.00,1007.000000,,2013-06-14 19:01:00,
2013-06-14 14:11:00,84.0,66.0,-100.00,South,172,5.0,11.0,54,0.00,,,0.00,1007.000000,,2013-06-14 19:11:00,
2013-06-14 14:33:00,85.0,65.0,-100.00,SSE,159,5.0,10.0,52,0.00,,,0.00,1042.000000,,2013-06-14 19:33:00,
2013-06-14 14:43:00,85.0,65.0,-100.00,SSE,159,5.0,10.0,52,0.00,,,0.00,1042.000000,,2013-06-14 19:43:00,
2013-06-14 14:53:00,85.0,65.0,-100.00,SSE,159,5.0,10.0,52,0.00,,,0.00,1042.000000,,2013-06-14 19:53:00,
2013-06-14 15:02:00,85.0,65.0,-100.00,SSE,159,5.0,10.0,52,0.00,,,0.00,1042.000000,,2013-06-14 20:02:00,
2013-06-14 15:11:00,85.0,65.0,-100.00,SSE,159,5.0,10.0,52,0.00,,,0.00,1042.000000,,2013-06-14 20:11:00,
2013-06-14 15:33:00,85.0,64.0,-100.00,SE,138,5.0,11.0,50,0.00,,,0.00,952.000000,,2013-06-14 20:33:00,
2013-06-14 15:43:00,85.0,64.0,-100.00,SE,138,5.0,11.0,50,0.00,,,0.00,952.000000,,2013-06-14 20:43:00,
2013-06-14 15:53:00,85.0,64.0,-100.00,SE,138,5.0,11.0,50,0.00,,,0.00,952.000000,,2013-06-14 20:53:00,
2013-06-14 16:02:00,85.0,64.0,-100.00,SE,138,5.0,11.0,50,0.00,,,0.00,952.000000,,2013-06-14 21:02:00,
2013-06-14 16:11:00,85.0,64.0,-100.00,SE,138,5.0,11.0,50,0.00,,,0.00,952.000000,,2013-06-14 21:11:00,
2013-06-14 16:34:00,86.0,65.0,-100.00,SE,132,5.0,9.0,50,0.00,,,0.00,778.000000,,2013-06-14 21:34:00,
2013-06-14 16:43:00,86.0,65.0,-100.00,SE,132,5.0,9.0,50,0.00,,,0.00,778.000000,,2013-06-14 21:43:00,
2013-06-14 16:52:00,86.0,65.0,-100.00,SE,132,5.0,9.0,50,0.00,,,0.00,778.000000,,2013-06-14 21:52:00,
2013-06-14 17:01:00,86.0,65.0,-100.00,SE,132,5.0,9.0,50,0.00,,,0.00,778.000000,,2013-06-14 22:01:00,
2013-06-14 17:11:00,86.0,65.0,-100.00,SE,132,5.0,9.0,50,0.00,,,0.00,778.000000,,2013-06-14 22:11:00,
2013-06-14 17:33:00,85.0,66.0,-100.00,SE,134,5.0,12.0,54,0.00,,,0.00,692.000000,,2013-06-14 22:33:00,
2013-06-14 17:43:00,85.0,66.0,-100.00,SE,134,5.0,12.0,54,0.00,,,0.00,692.000000,,2013-06-14 22:43:00,
2013-06-14 17:53:00,85.0,66.0,-100.00,SE,134,5.0,12.0,54,0.00,,,0.00,692.000000,,2013-06-14 22:53:00,
2013-06-14 18:02:00,85.0,66.0,-100.00,SE,134,5.0,12.0,54,0.00,,,0.00,692.000000,,2013-06-14 23:02:00,
2013-06-14 18:11:00,85.0,66.0,-100.00,SE,134,5.0,12.0,54,0.00,,,0.00,692.000000,,2013-06-14 23:11:00,
2013-06-14 18:33:00,83.0,66.0,-100.00,SE,131,6.0,14.0,56,0.00,,,0.00,485.000000,,2013-06-14 23:33:00,
2013-06-14 18:43:00,83.0,66.0,-100.00,SE,131,6.0,14.0,56,0.00,,,0.00,485.000000,,2013-06-14 23:43:00,
2013-06-14 18:52:00,83.0,66.0,-100.00,SE,131,6.0,14.0,56,0.00,,,0.00,485.000000,,2013-06-14 23:52:00,
2013-06-14 19:01:00,83.0,66.0,-100.00,SE,131,6.0,14.0,56,0.00,,,0.00,485.000000,,2013-06-15 00:01:00,
2013-06-14 19:11:00,83.0,66.0,-100.00,SE,131,6.0,14.0,56,0.00,,,0.00,485.000000,,2013-06-15 00:11:00,
2013-06-14 20:33:00,78.0,65.0,-100.00,SE,133,4.0,7.0,65,-99.99,,,0.00,81.000000,,2013-06-15 01:33:00,
2013-06-14 20:43:00,78.0,65.0,-100.00,SE,133,4.0,7.0,65,-99.99,,,0.00,81.000000,,2013-06-15 01:43:00,
2013-06-14 20:54:00,78.0,65.0,-100.00,SE,133,4.0,7.0,65,-99.99,,,0.00,81.000000,,2013-06-15 01:54:00,
2013-06-14 21:02:00,78.0,65.0,-100.00,SE,133,4.0,7.0,65,-99.99,,,0.00,81.000000,,2013-06-15 02:02:00,
2013-06-14 21:11:00,78.0,65.0,-100.00,SE,133,4.0,7.0,65,-99.99,,,0.00,81.000000,,2013-06-15 02:11:00,
2013-06-14 21:34:00,77.0,66.0,-100.00,SE,127,5.0,7.0,69,0.00,,,0.00,4.000000,,2013-06-15 02:34:00,
2013-06-14 21:43:00,77.0,66.0,-100.00,SE,127,5.0,7.0,69,0.00,,,0.00,4.000000,,2013-06-15 02:43:00,
2013-06-14 21:53:00,77.0,66.0,-100.00,SE,127,5.0,7.0,69,0.00,,,0.00,4.000000,,2013-06-15 02:53:00,
2013-06-14 22:01:00,77.0,66.0,-100.00,SE,127,5.0,7.0,69,0.00,,,0.00,4.000000,,2013-06-15 03:01:00,
2013-06-14 22:11:00,77.0,66.0,-100.00,SE,127,5.0,7.0,69,0.00,,,0.00,4.000000,,2013-06-15 03:11:00,
2013-06-14 22:33:00,75.0,65.0,-100.00,ESE,123,4.0,8.0,72,0.00,,,0.00,0.000000,,2013-06-15 03:33:00,
2013-06-14 22:44:00,75.0,65.0,-100.00,ESE,123,4.0,8.0,72,0.00,,,0.00,0.000000,,2013-06-15 03:44:00,
2013-06-14 22:53:00,75.0,65.0,-100.00,ESE,123,4.0,8.0,72,0.00,,,0.00,0.000000,,2013-06-15 03:53:00,
2013-06-14 23:02:00,75.0,65.0,-100.00,ESE,123,4.0,8.0,72,0.00,,,0.00,0.000000,,2013-06-15 04:02:00,
2013-06-14 23:12:00,75.0,65.0,-100.00,ESE,123,4.0,8.0,72,0.00,,,0.00,0.000000,,2013-06-15 04:12:00,
2013-06-14 23:34:00,74.0,65.0,-100.00,SE,144,4.0,8.0,74,0.00,,,0.00,0.000000,,2013-06-15 04:34:00,
2013-06-14 23:43:00,74.0,65.0,-100.00,SE,144,4.0,8.0,74,0.00,,,0.00,0.000000,,2013-06-15 04:43:00,
2013-06-14 23:54:00,74.0,65.0,-100.00,SE,144,4.0,8.0,74,0.00,,,0.00,0.000000,,2013-06-15 04:54:00,